Regional Weather Roundup
Issued by NWS Binghamton, NY

Home | Current Version | Previous Version | Text Only | Print | Product List | Glossary On
Versions: 1 2 3 4 5 6 7 8 9 10 11 12 13 14 15 16 17 18 19 20 21 22 23 24 25 26 27 28
000
ASUS41 KBGM 210610
RWRBGM

REGIONAL WEATHER ROUNDUP
NATIONAL WEATHER SERVICE BINGHAMTON NY
200 AM EDT THU SEP 21 2017

Note: "fair" indicates few or no clouds below 12,000 feet with no
significant weather and/or obstructions to visibility.

* = Station(s) that does not report precipitation, such as rain,
snow, etc, also no thunder or fog.

NYZ009-015>018-022>025-036-037-044>046-055>057-062-210700
...Central New York...

CITY           SKY/WX    TMP DP  RH WIND       PRES   REMARKS
Binghamton     MOCLDY    62  61  96 N5        30.07R
Cortland       FAIR      57  57 100 CALM      30.06S
Dansville      CLEAR     59  56  89 CALM      30.08S
Elmira         PTCLDY    59  59 100 W3        30.06R
Seneca Falls   CLOUDY    64  63  94 CALM      30.05S FOG
Ithaca         FOG       62  62 100 CALM      30.07R VSB 1/4
Hamilton       CLEAR     55  55 100 CALM      30.07R
Hornell        FOG       57  57 100 CALM      30.12S VSB 3/4
Monticello     MOCLDY    64  61  90 NW5       30.05S
Oneonta        CLEAR     63 N/A N/A CALM      30.08S
Penn Yan       PTCLDY    62  58  86 CALM      30.07R
Rome           CLOUDY    63  62  97 CALM      30.05R
Sidney         CLEAR    N/A N/A N/A CALM      30.06S
Syracuse       PTCLDY    63  63 100 CALM      30.03R
$$

PAZ038>040-043-044-047-048-072-210700
...Northeast Pennsylvania...

CITY           SKY/WX    TMP DP  RH WIND       PRES   REMARKS
Hazleton         N/A     66  61  82 N6        30.08S
Scranton       PTCLDY    63  61  93 S5        30.03S
$$
&&
KEY
WCI = Wind Chill Index
VSB = Visibility
HX  = Heat Index
$$




USA.gov is the U.S. government's official web portal to all federal, state and local government web resources and services.